Location: Recife
(8.0585°S, 34.8848°W)
Time: 20:07:40
(UTC-03:00)

S-56A Canister/Altair - Pass Details

Date: 20 April 2026
Orbit: 633 x 2484 km, 38.9° (Epoch: 16 May)

Event Time Altitude Azimuth Distance (km) Brightness Sun altitude
Rises 14:25:21 0° 277° (W) 5,462 12.7 39.5°
Reaches altitude 10° 14:30:33 10° 263° (W) 4,114 12.2 38.3°
Maximum altitude 14:37:42 20° 219° (SW) 2,819 10.8 36.7°
Drops below altitude 10° 14:43:16 10° 173° (S) 3,082 10.5 35.4°
Sets 14:46:29 0° 156° (SSE) 3,765 10.7 34.6°
